www.pogodaiklimat.ru

Погода и климат >> Архив погоды >> Австралия >> Marree Aero


ПОГОДА в Marree Aero

  • Прогноз погоды в Marree Aero
  • Монитор погоды в Marree Aero
  • Климат города

АРХИВ ПОГОДЫ в Marree Aero

Время (UTC), дата Ветер
(напр.,м/с)
 
Видим.   Явления Облачность Т
(С)
Тd
(С)
f
(%)
Тe
(С)
Тes
(С)
Комфортность P
(гПа)
Po
(гПа)
Тmin
(С)
Tmax
(С)
R
(мм)
R24
(мм)
S
(см)
23 17.05 штиль 0 н/о н/о +8.9 +2.0 62 +8 +8 1030.7 1024.6
22 17.05 штиль 0 н/о н/о +3.1 -0.7 76 +2 +2 1030.0 1023.9
00 18.05 ЮВ 3 н/о н/о +11.9 +2.6 53 +11 +11 1031.0 1024.9
01 18.05 Ю 3 н/о н/о +14.9 +3.4 46 +14 +14 1031.0 1024.9
02 18.05 Ю 3 н/о н/о +15.6 +2.7 42 +15 +15 1030.1 1024.0
03 18.05 Ю 4 н/о н/о +16.9 +2.5 38 +17 +17 1028.9 1022.8
05 18.05 Ю 4 н/о н/о +18.8 +2.2 33 +19 +19 1027.3 1021.2
04 18.05 ЮВ 4 н/о н/о +18.2 +2.1 34 +18 +18 1028.1 1022.0
06 18.05 Ю 4 н/о н/о +18.7 +2.5 34 +19 +19 1026.8 1020.7
07 18.05 ЮВ 5 н/о н/о +18.8 +2.6 34 +19 +19 1026.6 1020.5
08 18.05 Ю 5 н/о н/о +17.3 +2.5 37 +17 +17 1026.6 1020.5
09 18.05 Ю 5 н/о н/о +15.8 +4.2 46 +15 +15 1026.6 1020.5
11 18.05 Ю 3 н/о н/о +13.2 +5.9 61 +12 +12 1027.5 1021.4
10 18.05 Ю 4 н/о н/о +14.5 +5.3 54 +13 +13 1027.1 1021.0
12 18.05 Ю 4 н/о н/о +12.6 +6.4 66 +11 +11 1027.4 1021.3
13 18.05 Ю 5 н/о н/о +11.8 +6.7 71 +10 +10 1027.3 1021.2
14 18.05 ЮВ 4 н/о н/о +10.0 +5.6 74 +8 +8 1027.0 1020.9
15 18.05 ЮВ 5 н/о н/о +11.0 +6.7 75 +8 +8 1026.8 1020.7
17 18.05 ЮВ 3 н/о н/о +8.5 +5.1 79 +6 +6 1026.4 1020.3
16 18.05 ЮВ 3 н/о н/о +8.6 +4.6 76 +6 +6 1026.5 1020.4
18 18.05 Ю 3 н/о н/о +8.1 +5.6 84 +6 +6 1026.4 1020.3
19 18.05 ЮЗ 1 н/о н/о +7.3 +4.8 84 +6 +6 1026.6 1020.5
20 18.05 ЮЗ 3 н/о н/о +6.6 +4.1 84 +4 +4 1026.9 1020.8
21 18.05 Ю 3 н/о н/о +7.0 +5.6 91 +4 +4 1027.2 1021.1
23 18.05 ЮВ 3 н/о н/о +10.8 +6.7 76 +9 +9 1028.2 1022.1
22 18.05 В 3 н/о н/о +6.6 +3.8 82 +4 +4 1027.9 1021.8
00 19.05 ЮВ 4 н/о н/о +14.6 +7.4 62 +14 +14 1028.4 1022.3
01 19.05 ЮВ 4 н/о н/о +18.2 +7.9 51 +18 +18 1028.4 1022.3
02 19.05 ЮВ 3 н/о н/о +19.4 +7.5 46 +20 +20 1027.6 1021.5
03 19.05 Ю 3 н/о н/о +20.2 +6.5 41 +21 +21 комфорт 1026.7 1020.6
05 19.05 ЮВ 2 н/о н/о +21.7 +6.4 37 +22 +22 комфорт 1025.2 1019.1
04 19.05 Ю 3 н/о н/о +21.2 +6.7 39 +22 +22 комфорт 1025.7 1019.6
06 19.05 ЮВ 4 н/о н/о +21.8 +6.5 37 +23 +23 комфорт 1024.9 1018.8
07 19.05 Ю 6 н/о н/о +21.4 +7.3 40 +22 +22 комфорт 1025.0 1018.9
08 19.05 Ю 8 н/о н/о +20.4 +7.4 43 +21 +21 комфорт 1025.3 1019.2
09 19.05 Ю 6 н/о н/о +19.8 +7.2 44 +20 +20 1025.9 1019.8
11 19.05 Ю 5 н/о н/о +17.2 +6.4 49 +17 +17 1026.7 1020.6
10 19.05 Ю 6 н/о н/о +19.3 +7.1 45 +20 +20 1026.3 1020.2
12 19.05 Ю 4 н/о н/о +14.8 +5.6 54 +14 +14 1026.9 1020.8
13 19.05 Ю 4 н/о н/о +12.9 +4.8 58 +11 +11 1026.7 1020.6
14 19.05 Ю 5 н/о н/о +12.2 +5.1 62 +10 +10 1026.6 1020.5
15 19.05 Ю 5 н/о н/о +11.6 +4.8 63 +9 +9 1026.2 1020.1
17 19.05 Ю 2 н/о н/о +9.5 +3.5 66 +9 +9 1026.0 1019.9
16 19.05 ЮЗ 4 н/о н/о +10.6 +4.5 66 +8 +8 1026.0 1019.9
18 19.05 Ю 2 н/о н/о +8.6 +3.4 70 +7 +7 1025.9 1019.8
19 19.05 ЮВ 3 н/о н/о +7.3 +2.4 71 +5 +5 1026.3 1020.2
20 19.05 ЮВ 3 н/о н/о +6.3 +2.2 75 +4 +4 1026.5 1020.4
21 19.05 ЮВ 4 н/о н/о +6.8 +3.4 79 +3 +3 1027.3 1021.2
23 19.05 Ю 3 н/о н/о +12.7 +6.3 65 +11 +11 1028.7 1022.6
22 19.05 ЮВ 4 н/о н/о +7.3 +3.9 79 +4 +4 1028.1 1022.0
00 20.05 ЮВ 4 н/о н/о +16.1 +7.1 55 +16 +16 1029.0 1022.9
01 20.05 В 4 н/о н/о +19.3 +7.4 46 +20 +20 1028.9 1022.8
02 20.05 В 5 н/о н/о +20.5 +6.8 41 +21 +21 комфорт 1028.3 1022.2
03 20.05 В 3 н/о н/о +21.9 +5.8 35 +22 +22 комфорт 1027.4 1021.3
05 20.05 ЮВ 4 н/о н/о +21.7 +5.2 34 +22 +22 комфорт 1026.1 1020.0
04 20.05 В 3 н/о н/о +21.6 +5.1 34 +22 +22 комфорт 1026.6 1020.5
06 20.05 ЮВ 3 н/о н/о +21.8 +4.8 33 +22 +22 комфорт 1026.1 1020.0
07 20.05 Ю 1 н/о н/о +21.3 +4.4 33 +22 +22 комфорт 1026.5 1020.4
08 20.05 ЮЗ 2 н/о н/о +20.7 +3.4 32 +22 +22 комфорт 1026.5 1020.4
09 20.05 Ю 5 н/о н/о +18.6 +4.4 39 +19 +19 1027.0 1020.9
11 20.05 Ю 5 н/о н/о +16.5 +5.2 47 +16 +16 1028.5 1022.4
10 20.05 Ю 6 н/о н/о +17.7 +6.3 47 +17 +17 1027.9 1021.8
12 20.05 Ю 5 н/о н/о +15.1 +4.5 49 +14 +14 1028.8 1022.7
13 20.05 Ю 5 н/о н/о +13.4 +4.0 53 +12 +12 1029.3 1023.2
14 20.05 ЮВ 3 н/о н/о +11.8 +3.6 57 +11 +11 1029.3 1023.2
15 20.05 ЮВ 3 н/о н/о +11.8 +3.6 57 +10 +10 1029.1 1023.0
17 20.05 Ю 2 н/о н/о +9.0 +2.6 64 +8 +8 1028.6 1022.5
16 20.05 ЮВ 3 н/о н/о +9.6 +2.7 62 +8 +8 1029.0 1022.9
18 20.05 Ю 4 н/о н/о +8.6 +3.4 70 +6 +6 1028.8 1022.7
19 20.05 ЮВ 4 н/о н/о +6.4 +1.7 72 +3 +3 1029.0 1022.9
20 20.05 Ю 3 н/о н/о +5.8 +1.5 74 +3 +3 1029.2 1023.1
21 20.05 В 2 н/о н/о +6.9 +3.2 77 +5 +5 1030.1 1024.0
23 20.05 ЮВ 3 н/о н/о +10.5 +3.8 63 +9 +9 1031.6 1025.5
22 20.05 ЮВ 3 н/о н/о +6.5 +2.2 74 +4 +4 1030.7 1024.6
00 21.05 ЮВ 4 н/о н/о +15.0 +6.0 55 +14 +14 1032.1 1026.0
01 21.05 штиль 0 н/о н/о +16.8 +6.0 49 +17 +17 1031.8 1025.7
02 21.05 Ю 2 н/о н/о +18.0 +6.2 46 +19 +19 1031.1 1025.0
03 21.05 Ю 5 н/о н/о +20.8 +6.0 38 +22 +22 комфорт 1029.9 1023.8
05 21.05 Ю 7 н/о н/о +22.3 +3.9 30 +22 +22 комфорт 1028.6 1022.5
04 21.05 Ю 6 н/о н/о +22.1 +5.1 33 +22 +22 комфорт 1029.0 1022.9
06 21.05 Ю 6 н/о н/о +22.5 +2.6 27 +22 +22 комфорт 1028.5 1022.4
07 21.05 Ю 6 н/о н/о +22.0 +1.6 26 +22 +22 комфорт 1028.5 1022.4
08 21.05 Ю 5 н/о н/о +20.0 +1.9 30 +20 +20 1029.0 1022.9
09 21.05 Ю 4 н/о н/о +17.4 +1.8 35 +17 +17 1029.4 1023.3
11 21.05 Ю 4 н/о н/о +15.0 +4.4 49 +14 +14 1030.3 1024.2
10 21.05 Ю 3 н/о н/о +15.9 +2.0 39 +16 +16 1030.0 1023.9
12 21.05 Ю 2 н/о н/о +13.2 +3.0 50 +13 +13 1030.4 1024.3
13 21.05 Ю 3 н/о н/о +11.0 +2.1 54 +9 +9 1030.0 1023.9
14 21.05 ЮВ 4 н/о н/о +12.2 +4.7 60 +10 +10 1029.8 1023.7
15 21.05 Ю 5 н/о н/о +13.1 +5.8 61 +11 +11 1029.7 1023.6
17 21.05 ЮВ 5 н/о н/о +11.1 +5.2 67 +9 +9 1029.7 1023.6
16 21.05 ЮВ 5 н/о н/о +12.1 +5.5 64 +10 +10 1029.9 1023.8
18 21.05 Ю 6 н/о н/о +11.4 +5.5 67 +9 +9 1029.3 1023.2
19 21.05 ЮВ 5 н/о н/о +9.1 +4.7 74 +6 +6 1029.8 1023.7
20 21.05 ЮВ 4 н/о н/о +8.0 +4.6 79 +5 +5 1030.4 1024.3
21 21.05 ЮВ 4 н/о н/о +6.6 +3.9 83 +3 +3 1030.8 1024.7
23 21.05 ЮВ 2 н/о н/о +10.5 +4.9 68 +10 +10 1032.0 1025.9
22 21.05 В 2 н/о н/о +6.5 +3.5 81 +5 +5 1031.3 1025.2
00 22.05 ЮВ 4 н/о н/о +15.0 +6.0 55 +14 +14 1032.1 1026.0
01 22.05 ЮВ 2 н/о н/о +16.5 +6.1 50 +17 +17 1031.8 1025.7
02 22.05 ЮВ 3 н/о н/о +18.6 +6.8 46 +19 +19 1031.1 1025.0
03 22.05 Ю 4 н/о н/о +20.0 +4.5 36 +21 +21 комфорт 1029.8 1023.7
05 22.05 Ю 5 н/о н/о +22.8 +1.8 25 +22 +22 комфорт 1027.7 1021.6
04 22.05 ЮЗ 2 н/о н/о +21.6 +3.8 31 +22 +22 комфорт 1028.7 1022.6
06 22.05 Ю 6 н/о н/о +22.1 +3.3 29 +22 +22 комфорт 1027.4 1021.3
07 22.05 Ю 7 н/о н/о +20.5 +4.5 35 +21 +21 комфорт 1027.4 1021.3
08 22.05 Ю 7 н/о н/о +18.5 +5.4 42 +18 +18 1027.6 1021.5
09 22.05 Ю 5 н/о н/о +16.7 +5.6 48 +16 +16 1027.9 1021.8
11 22.05 Ю 6 н/о н/о +15.0 +7.1 59 +14 +14 1028.5 1022.4
10 22.05 Ю 5 н/о н/о +15.6 +6.6 55 +15 +15 1028.3 1022.2
12 22.05 ЮВ 6 н/о н/о +14.1 +7.4 64 +12 +12 1029.0 1022.9
13 22.05 ЮВ 4 н/о н/о +12.4 +7.1 70 +11 +11 1029.3 1023.2
14 22.05 ЮВ 3 н/о н/о +10.5 +6.1 74 +9 +9 1029.1 1023.0
15 22.05 Ю 4 н/о н/о +9.6 +6.3 80 +7 +7 1028.6 1022.5
17 22.05 ЮВ 4 н/о н/о +7.1 +4.6 84 +4 +4 1028.4 1022.3
16 22.05 Ю 3 н/о н/о +8.0 +5.8 86 +5 +5 1028.5 1022.4
18 22.05 ЮВ 3 н/о н/о +6.8 +5.4 91 +4 +4 1028.3 1022.2
19 22.05 ЮВ 4 н/о н/о +7.0 +6.1 94 +3 +3 1028.2 1022.1
20 22.05 Ю 3 н/о н/о +5.6 +4.4 92 +2 +2 1028.8 1022.7
21 22.05 Ю 4 н/о н/о +6.3 +5.4 94 +2 +2 1029.4 1023.3
23 22.05 ЮВ 3 н/о н/о +11.0 +6.2 72 +9 +9 1030.5 1024.4
22 22.05 Ю 5 н/о н/о +7.1 +5.4 89 +3 +3 1030.0 1023.9
00 23.05 ЮВ 4 н/о н/о +14.8 +7.1 60 +14 +14 1030.3 1024.2
01 23.05 В 3 н/о н/о +17.1 +6.9 51 +17 +17 1029.8 1023.7
02 23.05 В 4 н/о н/о +18.4 +6.9 47 +19 +19 1029.0 1022.9
03 23.05 ЮВ 3 н/о н/о +19.0 +6.2 43 +20 +20 1027.7 1021.6
05 23.05 Ю 4 н/о н/о +19.9 +5.5 39 +21 +21 комфорт 1025.8 1019.7
04 23.05 ЮВ 3 н/о н/о +19.6 +6.0 41 +21 +21 комфорт 1026.7 1020.6
06 23.05 ЮВ 3 н/о н/о +19.6 +4.9 38 +21 +21 комфорт 1025.7 1019.6
07 23.05 ЮВ 3 н/о н/о +19.5 +5.2 39 +20 +20 1025.3 1019.2
08 23.05 Ю 4 н/о н/о +18.2 +4.0 39 +18 +18 1025.5 1019.4
09 23.05 Ю 3 н/о н/о +16.5 +3.6 42 +16 +16 1025.9 1019.8
11 23.05 Ю 4 н/о н/о +14.1 +3.6 49 +13 +13 1026.6 1020.5
10 23.05 ЮЗ 3 н/о н/о +14.3 +2.5 45 +14 +14 1026.2 1020.1
12 23.05 ЮВ 4 н/о н/о +14.0 +4.6 53 +13 +13 1027.0 1020.9
13 23.05 В 3 н/о н/о +13.3 +4.7 56 +12 +12 1026.6 1020.5
14 23.05 Ю 3 н/о н/о +11.4 +3.7 59 +10 +10 1026.2 1020.1
15 23.05 Ю 3 н/о н/о +10.2 +3.0 61 +9 +9 1025.6 1019.5
17 23.05 ЮВ 4 н/о н/о +10.1 +3.8 65 +8 +8 1024.6 1018.5
16 23.05 Ю 4 н/о н/о +11.5 +5.2 65 +9 +9 1025.0 1018.9
18 23.05 Ю 4 н/о н/о +8.5 +2.7 67 +6 +6 1024.6 1018.5
19 23.05 Ю 5 н/о н/о +9.8 +5.0 72 +7 +7 1024.5 1018.4
20 23.05 Ю 5 н/о н/о +9.5 +5.3 75 +6 +6 1024.6 1018.5
21 23.05 Ю 5 н/о н/о +9.1 +5.5 78 +6 +6 1025.2 1019.1
23 23.05 ЮВ 2 н/о н/о +9.9 +5.5 74 +9 +9 1026.5 1020.4
22 23.05 Ю 5 н/о н/о +9.7 +6.2 79 +7 +7 1025.8 1019.7
00 24.05 ЮВ 3 н/о н/о +15.1 +7.2 59 +14 +14 1026.9 1020.8
01 24.05 В 5 н/о н/о +16.5 +7.2 54 +16 +16 1026.7 1020.6
02 24.05 В 3 н/о н/о +17.9 +7.0 49 +18 +18 1026.0 1019.9
03 24.05 ЮВ 3 н/о н/о +19.3 +7.1 45 +20 +20 1025.0 1018.9
05 24.05 В 3 н/о н/о +20.9 +6.1 38 +22 +22 комфорт 1023.1 1017.0
04 24.05 Ю 4 н/о н/о +20.7 +6.6 40 +22 +22 комфорт 1023.7 1017.6
06 24.05 В 4 н/о н/о +21.0 +6.2 38 +22 +22 комфорт 1022.8 1016.7
07 24.05 В 4 н/о н/о +21.0 +6.2 38 +22 +22 комфорт 1022.7 1016.6
08 24.05 В 3 н/о н/о +19.6 +6.0 41 +21 +21 комфорт 1023.0 1016.9
09 24.05 ЮВ 3 н/о н/о +17.3 +5.3 45 +17 +17 1023.5 1017.4
11 24.05 Ю 5 н/о н/о +15.6 +4.6 48 +15 +15 1024.3 1018.2
10 24.05 В 3 н/о н/о +16.1 +4.5 46 +16 +16 1023.6 1017.5
12 24.05 ЮВ 3 н/о н/о +13.5 +4.4 54 +13 +13 1024.7 1018.6
13 24.05 ЮВ 4 н/о н/о +13.2 +5.4 59 +12 +12 1024.4 1018.3
14 24.05 Ю 4 н/о н/о +13.0 +6.1 63 +11 +11 1024.2 1018.1
15 24.05 Ю 5 н/о н/о +12.2 +5.8 65 +10 +10 1024.0 1017.9
17 24.05 Ю 4 н/о н/о +11.1 +6.0 71 +9 +9 1023.4 1017.3
16 24.05 Ю 5 н/о н/о +11.9 +5.8 66 +10 +10 1023.6 1017.5
18 24.05 Ю 5 н/о н/о +10.5 +5.7 72 +8 +8 1023.3 1017.2
19 24.05 ЮВ 4 н/о н/о +9.5 +5.7 77 +7 +7 1023.3 1017.2
20 24.05 ЮВ 4 н/о н/о +9.3 +5.7 78 +7 +7 1023.8 1017.7
21 24.05 ЮВ 4 н/о н/о +8.3 +5.1 80 +5 +5 1024.3 1018.2
22 24.05 Ю 4 н/о н/о +9.2 +5.8 79 +7 +7 1025.2 1019.1

 

Местоположение метеостанции Marree Aero (Южная Австралия, Австралия): широта -29.66 долгота 138.06 высота над уровнем моря 51 м.

В архиве по умолчанию представлена погода в Marree Aero за последнюю неделю. Архивные данные за месяц целиком и за предыдущие месяцы, начиная с января 2011 года, Вы можете получить, выбрав интересующий диапазон дат из раскрывающегося списка и нажав кнопку "Ввод!".


*Определитесь, кто Вы:
робот инопланетянин человек

Внимание! Время в таблицах - всемирное. Для получения местного времени необходимо прибавить поправку, которая в Marree Aero равна 9.5 ч.

Смотрите также архив погоды в соседних городах и на ближайших метеорологических станциях:

Погода в Leigh Creek Airport (Южная Австралия, Австралия) (110 км)
Погода в Olympic Dam Aerodrome (Южная Австралия, Австралия) (146 км)
Погода в Woomera Aerodrome (Южная Австралия, Австралия) (205 км)
Погода в Moomba Airport (Южная Австралия, Австралия) (271 км)
Погода в Port Augusta Arid Lands (Южная Австралия, Австралия) (320 км)
Погода в Coober Pedy Airport (Южная Австралия, Австралия) (332 км)
Погода в Oodnadatta Airport (Южная Австралия, Австралия) (346 км)
Погода в Yunta Airstrip (Южная Австралия, Австралия) (354 км)
Погода в Tarcoola Aero (Южная Австралия, Австралия) (355 км)
Погода в Whyalla Airport (Южная Австралия, Австралия) (383 км)

Пояснения к столбцам:

Ветер - указаны скорость ветра в м/с - средняя за 10 мин, порывы в срок и между сроками (в фигурных скобках) и направление, откуда дует ветер: С - северный, СВ - северо-восточный, В - восточный, ЮВ - юго-восточный, Ю - южный, ЮЗ - юго-западный, З - западный, СЗ - северо-западный.
Видимость - горизонтальная дальность видимости в метрах или километрах. При видимости от 1 до 10 км при отсутствии осадков обычно наблюдается дымка, при ухудшении видимости до 1 км и менее - туман. В сухую погоду видимость может ухудшаться дымом, пылью или мглою.
Явления - указаны атмосферные явления, наблюдавшиеся в срок или в последний час перед сроком; фигурными скобками обозначены явления, наблюдавшиеся между сроками (за 1-3 часа до срока); квадратными скобками обозначены град или гололедные отложения с указанием их диаметра в мм.
Облачность - указаны через наклонную черту общая и нижняя облачность в баллах и высота нижней границы облаков в метрах; квадратными скобками обозначены формы облаков: Ci - перистые, Cs - перисто-слоистые, Cc - перисто-кучевые, Ac - высококучевые, As - высокослоистые, Sc - слоисто-кучевые, Ns - слоисто-дождевые, Cu - кучевые, Cb - кучево-дождевые. Подробнее классификацию облаков см. в Атласе облаков (PDF).
T - Температура воздуха - температура, измеренная на высоте 2 м над землей.
Td - Температура точки росы - температура, при понижении до которой содержащийся в воздухе водяной пар достигнет насыщения.
f - Относительная влажность воздуха - влажноcть воздуха, измеренная на высоте 2 м над землей.
Te - Эффективная температура - температура, которую ощущает одетый по сезону человек в тени. Характеристика душности погоды. При расчете учитывается влияние влажности воздуха и скорости ветра на теплоощущения человека.
Tes - Эффективная температура на солнце - температура, которую ощущает человек, с поправкой на солнечный нагрев. Характеристика знойности погоды. Зависит от высоты солнца над горизонтом, облачности и скорости ветра. Ночью, в пасмурную погоду, а также при ветре 12 м/с и более поправка равна нулю.
P - Атмосферное давление - приведенное к уровню моря атмосферное давление.
Po - Атмосферное давление - измеренное на уровне метеостанции атмосферное давление.
Tmin - Минимальная температура - минимум температуры воздуха на высоте 2 м над землей.
Tmax - Максимальная температура - максимум температуры воздуха на высоте 2 м над землей.
R - Количество осадков - Количество выпавших осадков за период времени, мм. При наведении курсора мыши на число - период времени, за который выпало указанное количество осадков.
R24 - Количество осадков - Количество выпавших осадков за 24 часа, мм.
S - Снежный покров - Высота снежного покрова, см. При наведении курсора мыши на число - состояние снежного покрова и степень покрытия местности в баллах.